Location: Newark
(25.4297°S, 49.2719°W)
Time: 23:36:56
(UTC+00:00)

N. Korean satellite - Visible Passes

Search period start: 20 October 2019 00:00
Search period end: 30 October 2019 00:00
Orbit: 455 x 508 km, 97.2° (Epoch: 20 October)

Date Brightness Start Highest point End Pass type
(mag) Time Alt. Az. Time Alt. Az. Time Alt. Az.
21 Oct 9.9 07:51:49 10° ENE 07:54:31 19° ESE 07:57:13 10° SSE visible
24 Oct 8.8 08:08:30 10° NE 08:11:53 33° ESE 08:15:17 10° S visible
25 Oct 10.2 07:44:32 10° ENE 07:46:44 15° ESE 07:48:57 10° SE visible
26 Oct 10.4 22:00:41 10° SW 22:02:04 12° WSW 22:03:27 10° W visible
28 Oct 9.4 08:00:56 10° NE 08:04:04 26° ESE 08:07:12 10° SSE visible
29 Oct 10.5 07:37:33 10° E 07:38:56 12° ESE 07:40:19 10° SE visible
